Regional Weather Roundup
Issued by NWS

Home | Current Version | Previous Version | Graphics & Text | Print | Product List | Glossary On
Versions: 1 2 3 4 5 6 7 8 9 10 11 12 13 14 15 16 17 18 19 20 21 22 23 24 25 26 27 28 29 30 31 32 33 34 35 36 37 38 39 40 41 42 43 44 45 46 47 48 49 50
710
ASUS43 KLSX 111907
RWRMO

WEATHER SUMMARY FOR MISSOURI
NATIONAL WEATHER SERVICE SPRINGFIELD MO
100 PM CST MON DEC 11 2017

NOTE: "FAIR" INDICATES FEW OR NO CLOUDS BELOW 12,000 FEET WITH NO
       SIGNIFICANT WEATHER AND/OR OBSTRUCTIONS TO VISIBILITY.
       CURRENT SKY AND/OR WEATHER CONDITIONS ARE NOT AVAILABLE FOR
       CHILLICOTHE AND FARMINGTON.

MOZ001>031-035>038-043-044-053-054-112000-
...NORTHERN AND WESTERN MISSOURI...

CITY           SKY/WX    TMP DP  RH WIND       PRES   REMARKS
KANSAS CTY INT MOSUNNY   56  25  30 NW24G31   29.96R
KANSAS C DTWN  SUNNY     57  25  29 NW21G37   29.95R
LEE`S SUMMIT   CLOUDY    57  24  28 NW30G37   29.95F
ST JOSEPH      MOSUNNY   55  30  38 NW31G40   29.97R
CHILLICOTHE      N/A     52  28  39 NW18G38   29.91R
KIRKSVILLE     CLOUDY    50  30  46 NW26G45   29.81R

$$
MOZ066>068-077>081-088>096-101>105-112000-
...SOUTHWEST MISSOURI...

CITY           SKY/WX    TMP DP  RH WIND       PRES   REMARKS
SPRINGFIELD    MOSUNNY   58  19  22 W20G32    29.95F
JOPLIN         MOSUNNY   62  21  20 NW15G21   30.01F
BRANSON        MOSUNNY   66  14  13 NW12G21   29.96F

$$
MOZ032>034-039>042-045>050-055>058-069>072-112000-
...CENTRAL MISSOURI...

CITY           SKY/WX    TMP DP  RH WIND       PRES   REMARKS
COLUMBIA       MOSUNNY   53  24  32 W21G32    29.85F
JEFFERSON CITY CLOUDY    53  23  31 W18G33    29.88S
ROLLA          CLOUDY    55  20  25 W21G33    29.88R
SEDALIA        SUNNY     56  25  30 NW23G31   29.92F
WHITEMAN AFB   MOSUNNY   56  23  27 NW18G30   29.88F
WARRENSBURG    MOSUNNY   55  23  28 W23G37    29.93F
OSAGE BEACH    CLOUDY    53  21  28 W10G24    29.92S

$$
MOZ051-052-059>065-112000-
...EAST CENTRAL MISSOURI...

CITY           SKY/WX    TMP DP  RH WIND       PRES   REMARKS
ST LOUIS INTL  CLOUDY    56  21  25 W23G30    29.77F
SPIRIT OF STL  MOSUNNY   56  21  25 W25G36    29.79R
ST CHARLES     CLOUDY    54  20  26 W23G37    29.75F

$$
MOZ072>076-082>087-097>100-106>115-112000-
...SOUTH CENTRAL AND SOUTHEAST MISSOURI...

CITY           SKY/WX    TMP DP  RH WIND       PRES   REMARKS
CAPE GIRARDEAU MOSUNNY   54  34  46 S13       29.85F
FARMINGTON     SUNNY     65  21  18 W14G24    29.79F
POPLAR BLUFF   SUNNY     61  32  33 SW16      29.87F
WEST PLAINS    SUNNY     66  14  13 W20G29    29.89F

$$



USA.gov is the U.S. government's official web portal to all federal, state and local government web resources and services.